DECAYED
Showing default

FLOCK 4Y 13, 55079 (Decayed)

Orbit data source: Space-Track

FLOCK 4Y 13, 55079 was a payload satellite owned by Planet (US) in LEO that was launched on Tue, 03 Jan 2023 UTC via an FALCON 9 launch vehicle from the Air Force Eastern Test Range (AFETR). Payload-class satellites include a variety of spacecraft equipped with specific instruments for various scientific and technological missions. These include communications satellites like Starlink; space stations such as the ISS; scientific satellites like the Hubble; Earth observation satellites from companies like Planet Labs, Umbra, and HawkEye 360; GPS; miniature CubeSats for education and research; and military/defense satellites.

Not visible in the next 10 days
Identifier
55079, 2023-001BY
Orbit
Decayed
Country
Flag of USUS
Related business
Manufacturer
Planet
Mission
Decayed Commercial Imaging
Bus & Motor
CUBESAT 3U, Unknown motor
Mass
5.7 kg wet, 5.7 kg dry
Launch date (UTC)
2023-01-03 (3 years ago)
Launch vehicle
FALCON 9
Launch site
Air Force Eastern Test Range (AFETR)
Object type
Payload
Rocket body
Debris
Shape & HBR
Box + 2 Pan, 1.0 m
Radar Cross Section
0.108 m², Medium (>0.1 m² and < 1m²)

Expand to show TLE details & history
Last TLE update: 2 months ago

TLE from 2 months ago
0 FLOCK 4Y 13
1 55079U 23001BY  25223.58430460  .12850426  25101-5  79718-3 0  9993
2 55079  97.3333 301.4577 0013820 268.2506  91.7210 16.40463017145840
Epoch: 2025-08-11T14:01Z
TLE epoch observation values (Epoch: 2025-08-11T14:01:23.917Z)
Latitude
-0.00012°
Longitude
130.81886°
Altitude
168.109 km
Speed
7.805 km/s
True Right ascension
20h 05m 49s
True Declination
0° 00' 00"
Sunlit
Object was in full shadow at epoch
Visualization orbit readout
Latitude
Unknown
Longitude
Unknown
Altitude
Unknown
Speed
Unknown
Apparent Right ascension
Unknown
Apparent Declination
Unknown
Sunlit
N/A
Visualization observer readout
Local Sidereal Time
23:19:11
Azimuth
Unknown
Elevation
Unknown
Doppler factor
Unknown
Orbital elements
Apogee altitude
170.413 km
Perigee altitude
152.337 km
Semi-major axis
6,539.512 km
Eccentricity
0.00138
Inclination
97.3333°
RAAN
301.4577°
Arg. of periapsis
268.2506°
True anomaly
91.87929°
Mean anomaly
91.721°
Eccentric anomaly
91.80014°
Mean motion
4.10417 °/min
Orbital period
87.72 mins
BSTAR
0.00079718
Loading maneuver chart data...
Computing Atmospheric mass density...
Loading historical data...
Loading historical data...
Loading historical data...
Loading historical data...
Loading historical data...
Loading historical data...
Loading historical data...

Documentation

Showing up to 5 results
|